[[{"header":{"parameterUnit":"m.s-1","parameterCategory":2,"la1":30.2991,"la2":30.254,"lo1":-89.0895,"lo2":-89.0444,"dy":0.0017,"dx":0.0017,"nx":28,"ny":28,"refTime":"2025-03-22T21:00:00:Z","depth":"0","parameterNumber":2,"parameterNumberName":"U-component_of_CURRENTS"},"data":[0,0,0,0,0,0,0,0,0,0,0,0,0,0,0,0,0,0,0,0,0,0,0,0,0,0,0,0,0,0,0,0,0,0,0,0,0,0,0,0,0,0,0,0,0,0,0,0,0,0,0,0,0,0,0,0,0,0,0.3183,0.3184,0,0.3223,0.3223,0.3223,0.3209,0.3209,0.3208,0.3208,0.3185,0.3185,0.3185,0,0,0,0,0,0,0,0,0,0,0,0,0,0.3043,0.3045,0.3183,0.3184,0.3184,0.3223,0.3223,0.3223,0.3209,0.3209,0.3208,0.3207,0.3185,0.3185,0.3185,0,0,0,0,0,0,0,0,0,0,0,0,0,0.3092,0.3046,0.3183,0.3185,0.3186,0.3223,0.3223,0.3223,0.3209,0.3209,0.3208,0.3207,0.3185,0.3185,0.3185,0.3199,0,0,0.3184,0.3184,0,0,0,0,0,0,0,0,0.3089,0.3096,0.3184,0.3185,0.3186,0.3214,0.3166,0.3214,0.321,0.3196,0.3208,0.3207,0.3192,0.3191,0.3196,0.3198,0.3197,0.3184,0.3184,0.3184,0.3184,0,0,0,0,0,0,0,0.3085,0.3094,0.3195,0.3185,0.3186,0.3167,0.3173,0.3174,0.3194,0.3197,0.3198,0.3209,0.3191,0.3196,0.3195,0.3197,0.3184,0.3184,0.3184,0.3184,0.3204,0.3205,0,0,0,0,0,0,0.3093,0.3092,0.3193,0.3196,0.3139,0.3171,0.3177,0.3202,0.3195,0.3195,0.3209,0.3208,0.3197,0.3195,0.3194,0.3198,0.3184,0.3184,0.3184,0.3204,0.3205,0.3205,0,0,0,0,0,0,0.309,0.3102,0.3192,0.3146,0.3157,0.3175,0.3203,0.3204,0.3208,0.3206,0.3203,0.3213,0.3196,0.3194,0.3195,0.3197,0.3184,0.3184,0.3203,0.3204,0.3205,0.3214,0,0,0,0,0,0,0.3086,0.3101,0.312,0.3148,0.316,0.3211,0.3204,0.3205,0.3218,0.3216,0.3208,0.3205,0.3195,0.3196,0.3195,0.3197,0.3183,0.3202,0.3203,0.3205,0.3213,0.3215,0.3217,0,0,0,0,0,0.3081,0.3115,0.3122,0.3134,0.3188,0.3211,0.3215,0.3221,0.3219,0.3221,0.3218,0.3205,0.3203,0.3196,0.3195,0.3197,0.3202,0.3203,0.3205,0.3212,0.3215,0.3217,0,0,0,0,0,0,0.3058,0.3118,0.3125,0.3174,0.3189,0.321,0.3221,0.3225,0.3226,0.3223,0.3214,0.3211,0.3214,0.3209,0.3202,0.3208,0.32,0.3202,0.3207,0.3209,0.3211,0.3289,0.3183,0,0,0,0,0,0.3066,0.311,0.3144,0.3179,0.3189,0.3204,0.3216,0.322,0.3228,0.3228,0.3219,0.3216,0.3222,0.3217,0.3218,0.3221,0.3302,0.3223,0.3225,0.3227,0.329,0.3427,0.3449,0.321,0.321,0.321,0,0,0.3065,0.3105,0.3129,0.3177,0.319,0.3213,0.3208,0.3227,0.3246,0.3225,0.3236,0.3224,0.3226,0.3229,0.3229,0.3222,0.3327,0.3229,0.323,0.3295,0.3432,0.3456,0.3477,0.3211,0.3211,0.3211,0,0,0.3084,0.3121,0.3158,0.3177,0.3208,0.322,0.3226,0.3243,0.3248,0.3259,0.3251,0.3259,0.3244,0.3259,0.3264,0.3286,0.3338,0.3259,0.3329,0.3458,0.3481,0.3502,0.3599,0.3628,0.3256,0.3256,0.3256,0,0.3073,0.3138,0.3166,0.3199,0.3221,0.3225,0.3253,0.3265,0.3275,0.3295,0.3263,0.3299,0.3276,0.3329,0.3326,0.3295,0.3375,0.331,0.3466,0.3489,0.351,0.3605,0.3638,0.3256,0.3256,0.3256,0.3256,0,0.3121,0.3165,0.3184,0.3236,0.3256,0.3281,0.3304,0.3315,0.3315,0.3334,0.3376,0.3364,0.3401,0.3368,0.3353,0.3472,0.3479,0.3456,0.3467,0.3536,0.3629,0.3663,0.3257,0.3257,0.3257,0.3257,0,0,0.3114,0.3202,0.3206,0.3238,0.3281,0.3303,0.3339,0.3385,0.3431,0.343,0.3506,0.35,0.3514,0.3527,0.3504,0.3599,0.3771,0.3596,0.3602,0.3707,0.4063,0.3952,0.3978,0.3784,0.3791,0.3796,0.4055,0,0.3136,0.321,0.3249,0.3304,0.3341,0.3364,0.3405,0.3445,0.3474,0.3539,0.3567,0.3621,0.3568,0.3589,0.3681,0.3759,0.387,0.3704,0.3972,0.3981,0.3886,0.4017,0.3812,0.4018,0.4089,0.4094,0.4098,0,0.3171,0.322,0.3285,0.336,0.3378,0.3409,0.3487,0.3525,0.3617,0.3645,0.3722,0.3754,0.3881,0.3824,0.406,0.3963,0.4042,0.4097,0.4107,0.4045,0.3935,0.3967,0.4077,0.3907,0.4151,0.4147,0.4143,0,0.3168,0.3245,0.3301,0.3325,0.3406,0.3439,0.3478,0.3558,0.36,0.3736,0.3797,0.3941,0.4021,0.4175,0.4256,0.42,0.4521,0.4448,0.4431,0.4422,0.4327,0.4298,0.4327,0.467,0.467,0.4669,0.4668,0,0.3192,0.3235,0.3304,0.3337,0.3394,0.3452,0.3522,0.358,0.3681,0.376,0.3863,0.3963,0.4127,0.4285,0.4363,0.4507,0.4618,0.4515,0.4514,0.4313,0.4281,0.419,0.4126,0.4679,0.4677,0.4675,0.4673,0,0.3188,0.3239,0.33,0.3379,0.3399,0.3439,0.3513,0.3581,0.3678,0.3798,0.3855,0.4038,0.4244,0.4376,0.4622,0.4629,0.4641,0.4791,0.4521,0.4482,0.4262,0.4206,0.4236,0.4118,0.4851,0.485,0.485,0,0.3198,0.3235,0.3305,0.3341,0.3377,0.3433,0.3486,0.3564,0.3634,0.383,0.3904,0.4125,0.4242,0.4537,0.4611,0.4764,0.4621,0.4662,0.4513,0.4283,0.4223,0.4076,0.3962,0.4387,0.4383,0.4379,0.4376,0,0.322,0.3242,0.3298,0.3347,0.3401,0.3431,0.3507,0.3535,0.3659,0.376,0.3906,0.4014,0.426,0.4317,0.4494,0.4552,0.4399,0.459,0.4454,0.3976,0.3728,0.3596,0.4159,0.4345,0.4348,0.435,0.4352,0.4353,0.3235,0.3259,0.3324,0.3365,0.3406,0.3413,0.34,0.3482,0.3537,0.3635,0.3818,0.3912,0.4043,0.4238,0.428,0.415,0.4183,0.4029,0.4022,0.3924,0.368,0.4152,0.425,0.4252,0.4255,0.4257,0.4258,0,0.325,0.3285,0.3339,0.3354,0.3352,0.3382,0.3406,0.3362,0.3367,0.3512,0.3597,0.3663,0.3701,0.3775,0.3736,0.3611,0.3472,0.3497,0.3245,0.3194,0.3715,0.3554,0.3378,0.3378,0.3379,0.3379,0.3379,0.3379,0.3271,0.3317,0.3331,0.33,0.3291,0.321,0.3187,0.3131,0.3166,0.3138,0.315,0.3242,0.3343,0.3375,0.3219,0.3151,0.2911,0.2781,0.2807,0.3138,0.3185,0.323,0.306,0.2784,0.2784,0.2123,0.2118,0.2114]},{"header":{"parameterUnit":"m.s-1","parameterCategory":2,"la1":30.2991,"la2":30.254,"lo1":-89.0895,"lo2":-89.0444,"dy":0.0017,"dx":0.0017,"nx":28,"ny":28,"refTime":"2025-03-22T21:00:00:Z","depth":"0","parameterNumber":3,"parameterNumberName":"V-component_of_CURRENTS"},"data":[0,0,0,0,0,0,0,0,0,0,0,0,0,0,0,0,0,0,0,0,0,0,0,0,0,0,0,0,0,0,0,0,0,0,0,0,0,0,0,0,0,0,0,0,0,0,0,0,0,0,0,0,0,0,0,0,0,0,-0.0169,-0.017,0,-0.0229,-0.0229,-0.023,-0.0274,-0.0274,-0.0275,-0.0275,-0.0284,-0.0284,-0.0284,0,0,0,0,0,0,0,0,0,0,0,0,0,-0.0077,-0.0078,-0.0169,-0.017,-0.0171,-0.0229,-0.0229,-0.023,-0.0273,-0.0274,-0.0275,-0.0275,-0.0284,-0.0284,-0.0284,0,0,0,0,0,0,0,0,0,0,0,0,0,-0.0123,-0.0078,-0.0169,-0.0201,-0.0204,-0.0229,-0.0229,-0.023,-0.0273,-0.0274,-0.0275,-0.0276,-0.0285,-0.0284,-0.0284,-0.0266,0,0,-0.0283,-0.0283,0,0,0,0,0,0,0,0,-0.012,-0.0126,-0.0195,-0.0199,-0.0203,-0.0246,-0.02,-0.024,-0.0273,-0.0246,-0.0275,-0.0276,-0.0267,-0.0268,-0.0276,-0.0267,-0.0267,-0.0283,-0.0283,-0.0282,-0.0282,0,0,0,0,0,0,0,-0.0117,-0.0124,-0.0191,-0.0196,-0.0201,-0.0206,-0.0214,-0.0208,-0.0249,-0.0248,-0.0252,-0.026,-0.0269,-0.0277,-0.0277,-0.0267,-0.0283,-0.0282,-0.0282,-0.0282,-0.0213,-0.0211,0,0,0,0,0,0,-0.0113,-0.0121,-0.0189,-0.0193,-0.0164,-0.0208,-0.0216,-0.023,-0.0251,-0.0255,-0.026,-0.0262,-0.0277,-0.0277,-0.0277,-0.0224,-0.0282,-0.0282,-0.0282,-0.0214,-0.0212,-0.021,0,0,0,0,0,0,-0.0111,-0.0119,-0.0187,-0.0159,-0.0169,-0.0209,-0.0224,-0.0231,-0.024,-0.026,-0.0264,-0.0262,-0.0278,-0.0278,-0.0264,-0.0226,-0.0282,-0.0282,-0.0216,-0.0214,-0.0211,-0.0139,0,0,0,0,0,0,-0.0108,-0.0118,-0.012,-0.0159,-0.017,-0.019,-0.0224,-0.0231,-0.0245,-0.0249,-0.0263,-0.0265,-0.0278,-0.0264,-0.0264,-0.0226,-0.0281,-0.0218,-0.0215,-0.0212,-0.0143,-0.0134,-0.0126,0,0,0,0,0,-0.0105,-0.0107,-0.012,-0.0128,-0.0175,-0.0189,-0.0194,-0.0224,-0.0244,-0.0237,-0.0249,-0.0265,-0.0244,-0.0263,-0.0262,-0.0224,-0.022,-0.0216,-0.0212,-0.0147,-0.0136,-0.0126,0,0,0,0,0,0,-0.0068,-0.0113,-0.0128,-0.0145,-0.0159,-0.0197,-0.0198,-0.0218,-0.0224,-0.0229,-0.0249,-0.0251,-0.0223,-0.0233,-0.0254,-0.0194,-0.0232,-0.0228,-0.0182,-0.0172,-0.0163,-0.0121,-0.0281,0,0,0,0,0,-0.0061,-0.0075,-0.0111,-0.0119,-0.0127,-0.016,-0.017,-0.0189,-0.0205,-0.021,-0.022,-0.0221,-0.0206,-0.0199,-0.0194,-0.0163,-0.0145,-0.0136,-0.0127,-0.012,-0.0084,-0.0018,0.0,-0.0198,-0.0198,-0.0198,0,0,-0.0047,-0.0075,-0.0082,-0.0111,-0.0129,-0.0116,-0.0167,-0.0178,-0.0158,-0.0206,-0.0181,-0.0195,-0.0193,-0.0159,-0.0146,-0.0163,-0.006,-0.0116,-0.0109,-0.0077,-0.0012,0.0007,0.0025,-0.0196,-0.0196,-0.0197,0,0,-0.0013,-0.0052,-0.0042,-0.0049,-0.0071,-0.0088,-0.0087,-0.0117,-0.0123,-0.0107,-0.0128,-0.0111,-0.0108,-0.0086,-0.0076,-0.0013,-0.0021,-0.0023,0.0061,0.0124,0.0141,0.0157,0.0179,0.0197,-0.0014,-0.0014,-0.0014,0,0.0011,0.0014,-0.0037,-0.0019,-0.0012,-0.0068,-0.0034,-0.0045,-0.0063,-0.0042,-0.0087,-0.004,-0.006,0.0022,0.0031,0.0011,0.0028,0.0018,0.0137,0.0153,0.0168,0.0187,0.0205,-0.001,-0.0011,-0.0011,-0.0011,0,0.0061,0.007,0.0076,0.0083,0.0084,0.0098,0.0078,0.0085,0.0063,0.0063,0.0115,0.0093,0.0135,0.0119,0.0087,0.019,0.016,0.0136,0.0113,0.0193,0.0207,0.0225,-0.0004,-0.0006,-0.0007,-0.0008,0,0,0.0115,0.0114,0.0122,0.0148,0.014,0.0149,0.0185,0.0217,0.027,0.0243,0.0334,0.0321,0.0311,0.0323,0.0294,0.0329,0.0413,0.0277,0.0278,0.0303,0.0533,0.0452,0.0462,0.0409,0.0413,0.0416,0.0491,0,0.0182,0.0236,0.0219,0.0289,0.0318,0.0295,0.0344,0.0364,0.0374,0.0444,0.0434,0.0499,0.039,0.0425,0.0443,0.0443,0.0468,0.0394,0.045,0.0452,0.0375,0.0484,0.0416,0.0473,0.0508,0.0511,0.0513,0,0.0256,0.0278,0.0353,0.0402,0.0416,0.0453,0.053,0.0568,0.0639,0.0655,0.0709,0.0706,0.0772,0.0661,0.0706,0.0664,0.0609,0.0579,0.0582,0.0504,0.0406,0.0405,0.0503,0.0303,0.054,0.0537,0.0536,0,0.0331,0.0382,0.0445,0.046,0.0504,0.0547,0.0578,0.0641,0.071,0.0815,0.0901,0.0939,0.101,0.0963,0.0868,0.0812,0.0903,0.0822,0.0694,0.0685,0.0641,0.0622,0.0565,0.0859,0.0858,0.0858,0.0858,0,0.0417,0.0472,0.0485,0.0524,0.0612,0.0622,0.0742,0.0778,0.0894,0.1034,0.1028,0.1161,0.1094,0.1117,0.0981,0.0906,0.0997,0.075,0.0725,0.0657,0.064,0.0472,0.0364,0.0861,0.086,0.086,0.0859,0,0.0498,0.051,0.0581,0.063,0.0651,0.0716,0.0824,0.093,0.1021,0.122,0.1277,0.138,0.1415,0.13,0.1254,0.1082,0.0876,0.0924,0.0823,0.0785,0.0447,0.0346,0.0309,0.0241,0.0821,0.082,0.0819,0,0.0546,0.0588,0.0645,0.0694,0.072,0.081,0.0897,0.0984,0.1118,0.1359,0.149,0.159,0.1677,0.1555,0.1279,0.1059,0.087,0.0828,0.0701,0.0459,0.033,0.0258,0.0199,0.0661,0.0659,0.0657,0.0656,0,0.0631,0.0645,0.0697,0.0785,0.0871,0.0977,0.1112,0.123,0.1396,0.1581,0.1823,0.1914,0.1792,0.1575,0.1247,0.1053,0.0668,0.0781,0.0591,0.0265,0.0132,0.0043,0.0545,0.064,0.0641,0.0642,0.0643,0.0644,0.0689,0.0734,0.0797,0.0886,0.0994,0.1152,0.1265,0.1449,0.1676,0.1977,0.2034,0.2195,0.181,0.1362,0.109,0.0495,0.0547,0.0297,0.0216,0.0182,0.0057,0.0498,0.0516,0.0517,0.0518,0.0519,0.0519,0,0.075,0.0805,0.0897,0.1016,0.1155,0.1193,0.1424,0.1573,0.1855,0.2112,0.2301,0.2145,0.1669,0.1163,0.037,-0.0005,-0.013,-0.0205,-0.0322,-0.0337,0.011,0.0037,-0.012,-0.012,-0.0119,-0.0119,-0.0119,-0.0119,0.079,0.0879,0.0923,0.1135,0.1235,0.1432,0.1567,0.1805,0.201,0.2281,0.2352,0.2365,0.187,0.055,-0.0331,-0.051,-0.0745,-0.0817,-0.0875,-0.0618,-0.0578,-0.0539,-0.0633,-0.0927,-0.0928,-0.1301,-0.1305,-0.1309]}],[{"header":{"parameterUnit":"m.s-1","parameterCategory":2,"la1":30.2991,"la2":30.254,"lo1":-89.0895,"lo2":-89.0444,"dy":0.0017,"dx":0.0017,"nx":28,"ny":28,"refTime":"2025-03-22T21:00:00:Z","depth":"2","parameterNumber":2,"parameterNumberName":"U-component_of_CURRENTS"},"data":[0,0,0,0,0,0,0,0,0,0,0,0,0,0,0,0,0,0,0,0,0,0,0,0,0,0,0,0,0,0,0,0,0,0,0,0,0,0,0,0,0,0,0,0,0,0,0,0,0,0,0,0,0,0,0,0,0,0,0.2861,0.2862,0,0.2893,0.2893,0.2893,0.2892,0.2892,0.2892,0.2892,0.2947,0.2949,0.295,0,0,0,0,0,0,0,0,0,0,0,0,0,0.2798,0.2798,0.2861,0.2862,0.2862,0.2893,0.2893,0.2893,0.2892,0.2892,0.2892,0.2892,0.2947,0.2948,0.295,0,0,0,0,0,0,0,0,0,0,0,0,0,0.2823,0.2799,0.2861,0.2869,0.287,0.2893,0.2893,0.2893,0.2892,0.2892,0.2892,0.2892,0.2946,0.2948,0.2951,0.2966,0,0,0.2958,0.2959,0,0,0,0,0,0,0,0,0.2821,0.2825,0.2867,0.2868,0.287,0.2893,0.2892,0.2921,0.2892,0.2879,0.2892,0.2892,0.2934,0.2937,0.2937,0.2969,0.2971,0.2958,0.2959,0.296,0.2961,0,0,0,0,0,0,0,0.282,0.2823,0.2869,0.2868,0.287,0.2871,0.2874,0.2897,0.2904,0.288,0.2881,0.2892,0.2934,0.2935,0.2938,0.2972,0.2958,0.296,0.2961,0.2962,0.3047,0.3048,0,0,0,0,0,0,0.2825,0.2822,0.2868,0.2871,0.285,0.2873,0.2876,0.2882,0.2903,0.2907,0.2892,0.2892,0.2931,0.2936,0.294,0.2983,0.296,0.2962,0.2964,0.3046,0.3047,0.3048,0,0,0,0,0,0,0.2823,0.2828,0.2867,0.2851,0.2856,0.2874,0.2881,0.2882,0.2898,0.2912,0.2916,0.2907,0.2931,0.2937,0.2973,0.2985,0.2963,0.2965,0.3045,0.3047,0.3048,0.3055,0,0,0,0,0,0,0.2821,0.2827,0.2839,0.2851,0.2858,0.2891,0.2881,0.2883,0.2906,0.2906,0.2927,0.2931,0.2931,0.2969,0.2975,0.2987,0.2967,0.3044,0.3046,0.3047,0.3053,0.3056,0.3058,0,0,0,0,0,0.2819,0.2824,0.2839,0.2845,0.287,0.2892,0.2895,0.2904,0.2907,0.2916,0.2932,0.2931,0.2984,0.2972,0.2979,0.2992,0.3043,0.3045,0.3047,0.3052,0.3055,0.3058,0,0,0,0,0,0,0.2795,0.2826,0.2841,0.2855,0.2882,0.2893,0.2904,0.2916,0.2934,0.2939,0.2946,0.2952,0.2986,0.2993,0.298,0.3022,0.3012,0.3016,0.3014,0.3017,0.302,0.3059,0.2969,0,0,0,0,0,0.28,0.2821,0.2847,0.2864,0.2875,0.2896,0.2909,0.2921,0.2938,0.2946,0.2959,0.2977,0.2997,0.3011,0.3028,0.3057,0.3096,0.3069,0.3071,0.3073,0.3111,0.3156,0.3167,0.3055,0.3055,0.3055,0,0,0.2797,0.282,0.2831,0.2863,0.288,0.2908,0.2902,0.2928,0.2962,0.2951,0.2991,0.2991,0.3008,0.3033,0.3049,0.3042,0.3128,0.3076,0.3077,0.3115,0.316,0.3171,0.3181,0.3056,0.3056,0.3056,0,0,0.28,0.2821,0.2839,0.2867,0.2907,0.2923,0.2937,0.296,0.298,0.3021,0.3016,0.3029,0.3062,0.3068,0.3079,0.3113,0.3141,0.3111,0.3156,0.3198,0.3208,0.3217,0.3291,0.3307,0.311,0.311,0.311,0,0.2793,0.2833,0.2848,0.2878,0.2913,0.2934,0.2971,0.2994,0.3028,0.3055,0.3041,0.3089,0.3085,0.3128,0.3129,0.312,0.3163,0.3136,0.3202,0.3212,0.3221,0.3295,0.3312,0.311,0.311,0.311,0.311,0,0.2815,0.2857,0.287,0.2924,0.2955,0.2992,0.3033,0.3064,0.3089,0.3113,0.3163,0.3156,0.3192,0.3171,0.3162,0.3219,0.3236,0.3198,0.3194,0.3233,0.3308,0.3326,0.3111,0.3111,0.3111,0.311,0,0,0.2778,0.2868,0.2878,0.2923,0.2991,0.3017,0.3081,0.3144,0.3193,0.3215,0.3282,0.3282,0.3282,0.3296,0.3273,0.3293,0.3374,0.3279,0.328,0.3354,0.3507,0.3323,0.3326,0.3345,0.3348,0.3351,0.3536,0,0.2798,0.2871,0.2915,0.2994,0.3037,0.3091,0.3147,0.3207,0.3255,0.3317,0.3331,0.338,0.3331,0.3347,0.3364,0.3387,0.3422,0.3331,0.3459,0.3465,0.3295,0.3339,0.3066,0.319,0.3554,0.3557,0.3559,0,0.2815,0.2868,0.2946,0.3051,0.3072,0.3118,0.3223,0.3281,0.3371,0.3407,0.3464,0.349,0.3558,0.3486,0.3585,0.3535,0.3537,0.3535,0.3541,0.3386,0.3313,0.3208,0.321,0.3589,0.3587,0.3585,0.3583,0,0.2795,0.2896,0.2965,0.3001,0.3105,0.3153,0.3213,0.3304,0.3358,0.348,0.3538,0.3619,0.367,0.3709,0.3709,0.3675,0.3797,0.3748,0.3594,0.3584,0.3387,0.3351,0.381,0.381,0.381,0.3809,0.3809,0,0.2806,0.2864,0.2961,0.2998,0.3074,0.3152,0.3236,0.3308,0.3409,0.3474,0.3586,0.3652,0.3723,0.3791,0.3786,0.3753,0.3872,0.3634,0.3615,0.3378,0.3342,0.3707,0.3693,0.3816,0.3815,0.3813,0.3812,0,0.2769,0.2845,0.2919,0.3029,0.3067,0.3117,0.3232,0.3277,0.3406,0.3506,0.3558,0.3711,0.38,0.3847,0.391,0.3827,0.3824,0.3766,0.3493,0.3434,0.3583,0.3567,0.3671,0.3666,0.3662,0.3658,0.3655,0,0.2757,0.279,0.2911,0.2942,0.2991,0.3075,0.3119,0.3249,0.3292,0.3517,0.3547,0.3704,0.3724,0.378,0.3682,0.3658,0.3746,0.3377,0.3223,0.3595,0.3569,0.3559,0.3549,0.3003,0.2995,0.2988,0.2983,0,0.2701,0.2745,0.2791,0.2858,0.2912,0.2979,0.3056,0.3086,0.3239,0.3338,0.3462,0.3519,0.3559,0.3385,0.3321,0.3262,0.336,0.3234,0.373,0.3033,0.2965,0.2938,0.2951,0.2924,0.293,0.2934,0.2937,0.294,0.2634,0.2639,0.2688,0.2745,0.2809,0.2848,0.286,0.2927,0.2987,0.3046,0.3197,0.3167,0.3171,0.2902,0.2816,0.2762,0.2964,0.2847,0.2869,0.2898,0.2739,0.2662,0.2539,0.2543,0.2546,0.2549,0.2551,0,0.2505,0.2539,0.2568,0.2618,0.2623,0.2741,0.2783,0.2737,0.2747,0.2772,0.279,0.2495,0.2367,0.2419,0.2224,0.2183,0.2178,0.2122,0.212,0.2179,0.2231,0.2039,0.1655,0.1652,0.165,0.1648,0,0,0.2439,0.2399,0.2414,0.24,0.2475,0.2468,0.2485,0.2428,0.2398,0.2227,0.2152,0.2208,0.2321,0.195,0.1897,0.1766,0.1963,0.1692,0.241,0.2469,0.2518,0.2646,0.2414,0,0,0,0,0]},{"header":{"parameterUnit":"m.s-1","parameterCategory":2,"la1":30.2991,"la2":30.254,"lo1":-89.0895,"lo2":-89.0444,"dy":0.0017,"dx":0.0017,"nx":28,"ny":28,"refTime":"2025-03-22T21:00:00:Z","depth":"2","parameterNumber":3,"parameterNumberName":"V-component_of_CURRENTS"},"data":[0,0,0,0,0,0,0,0,0,0,0,0,0,0,0,0,0,0,0,0,0,0,0,0,0,0,0,0,0,0,0,0,0,0,0,0,0,0,0,0,0,0,0,0,0,0,0,0,0,0,0,0,0,0,0,0,0,0,-0.0501,-0.0502,0,-0.0552,-0.0553,-0.0553,-0.0581,-0.0581,-0.0581,-0.0581,-0.0542,-0.0541,-0.054,0,0,0,0,0,0,0,0,0,0,0,0,0,-0.036,-0.0363,-0.0501,-0.0502,-0.0502,-0.0552,-0.0553,-0.0553,-0.0581,-0.0581,-0.0581,-0.0581,-0.0542,-0.0541,-0.054,0,0,0,0,0,0,0,0,0,0,0,0,0,-0.0418,-0.0364,-0.0501,-0.0521,-0.0523,-0.0552,-0.0553,-0.0554,-0.0581,-0.0581,-0.0581,-0.058,-0.0543,-0.0541,-0.054,-0.0531,0,0,-0.0535,-0.0534,0,0,0,0,0,0,0,0,-0.0415,-0.0424,-0.0518,-0.052,-0.0522,-0.0559,-0.0489,-0.0541,-0.0581,-0.056,-0.0581,-0.058,-0.0539,-0.0538,-0.055,-0.0529,-0.0528,-0.0535,-0.0534,-0.0533,-0.0533,0,0,0,0,0,0,0,-0.0411,-0.0421,-0.0522,-0.0518,-0.0521,-0.0504,-0.0513,-0.0499,-0.0548,-0.0562,-0.0564,-0.0568,-0.0539,-0.0551,-0.0549,-0.0527,-0.0535,-0.0534,-0.0533,-0.0532,-0.0423,-0.0421,0,0,0,0,0,0,-0.0407,-0.0418,-0.0521,-0.0524,-0.0466,-0.0507,-0.0517,-0.0548,-0.055,-0.0551,-0.0568,-0.0569,-0.0554,-0.0551,-0.0547,-0.0471,-0.0533,-0.0532,-0.0531,-0.0425,-0.0423,-0.042,0,0,0,0,0,0,-0.0404,-0.0417,-0.0519,-0.0469,-0.0481,-0.051,-0.0544,-0.0549,-0.0554,-0.0556,-0.0555,-0.0566,-0.0554,-0.0549,-0.0519,-0.0471,-0.0531,-0.053,-0.0427,-0.0424,-0.0421,-0.0359,0,0,0,0,0,0,-0.0401,-0.0416,-0.043,-0.047,-0.0483,-0.0523,-0.0544,-0.055,-0.0556,-0.0558,-0.0554,-0.0551,-0.0553,-0.0521,-0.0517,-0.047,-0.0529,-0.043,-0.0426,-0.0422,-0.0363,-0.0354,-0.0346,0,0,0,0,0,-0.0396,-0.0422,-0.0431,-0.0442,-0.0505,-0.0522,-0.0527,-0.0547,-0.0556,-0.0552,-0.0545,-0.0551,-0.0494,-0.0519,-0.0515,-0.0466,-0.0432,-0.0427,-0.0423,-0.0367,-0.0356,-0.0346,0,0,0,0,0,0,-0.0367,-0.0428,-0.0439,-0.0482,-0.0491,-0.0526,-0.053,-0.054,-0.0536,-0.0532,-0.0536,-0.0532,-0.0483,-0.0485,-0.0512,-0.0422,-0.0459,-0.0453,-0.0418,-0.0407,-0.0399,-0.0389,-0.0527,0,0,0,0,0,-0.0367,-0.0403,-0.0439,-0.0466,-0.0474,-0.0498,-0.0505,-0.0513,-0.0519,-0.0519,-0.0513,-0.0494,-0.0463,-0.0445,-0.0426,-0.0384,-0.0402,-0.0346,-0.0337,-0.033,-0.0318,-0.0309,-0.0299,-0.0406,-0.0406,-0.0406,0,0,-0.0361,-0.0398,-0.0417,-0.046,-0.0475,-0.046,-0.0503,-0.0509,-0.0473,-0.0512,-0.0464,-0.0467,-0.0446,-0.0396,-0.0373,-0.039,-0.0312,-0.0324,-0.0318,-0.031,-0.0303,-0.0293,-0.0284,-0.0403,-0.0403,-0.0404,0,0,-0.035,-0.04,-0.0413,-0.0412,-0.0426,-0.0435,-0.0431,-0.045,-0.0439,-0.0403,-0.041,-0.0389,-0.035,-0.0327,-0.0308,-0.0238,-0.0268,-0.0225,-0.017,-0.0161,-0.0153,-0.0146,-0.0174,-0.0169,-0.0218,-0.0218,-0.0218,0,-0.0334,-0.0352,-0.0411,-0.0399,-0.0378,-0.0416,-0.0379,-0.0375,-0.0371,-0.0348,-0.0372,-0.0313,-0.031,-0.0234,-0.0215,-0.0217,-0.0235,-0.0214,-0.0152,-0.0145,-0.0138,-0.0169,-0.0165,-0.0214,-0.0215,-0.0215,-0.0215,0,-0.0318,-0.0309,-0.0311,-0.0306,-0.0298,-0.0273,-0.0268,-0.0246,-0.0242,-0.0238,-0.0181,-0.0189,-0.0152,-0.0146,-0.016,-0.0098,-0.0135,-0.0147,-0.0183,-0.0124,-0.016,-0.0157,-0.0209,-0.021,-0.0212,-0.0212,0,0,-0.0318,-0.0302,-0.029,-0.0253,-0.0234,-0.0225,-0.0161,-0.0118,-0.0071,-0.0073,-0.001,0.0015,-0.0014,0.0005,-0.0012,-0.0015,-0.0003,-0.0061,-0.0063,-0.0099,-0.0012,-0.0083,-0.0088,-0.0009,-0.0008,-0.0007,-0.0063,0,-0.0265,-0.0214,-0.0216,-0.0129,-0.0092,-0.0081,-0.002,0.0014,0.0035,0.008,0.0073,0.0118,0.0055,0.0073,0.0062,0.0032,0.0011,0.0012,-0.0055,-0.0057,-0.0135,-0.0084,-0.0061,-0.0111,-0.006,-0.006,-0.0059,0,-0.0221,-0.0191,-0.0105,-0.0025,-0.0009,0.0037,0.0126,0.0177,0.0226,0.0238,0.0262,0.025,0.0273,0.0197,0.0159,0.0161,0.0079,0.0026,0.0023,-0.006,-0.0122,-0.0157,-0.0109,-0.0055,-0.0056,-0.0056,-0.0056,0,-0.0172,-0.0096,-0.0022,0.0008,0.0075,0.0127,0.0169,0.0227,0.0279,0.0342,0.0392,0.0385,0.0411,0.0327,0.0213,0.0197,0.0135,0.0106,-0.0046,-0.0053,-0.0054,-0.0063,0.0056,0.0057,0.0057,0.0057,0.0057,0,-0.01,-0.0035,0.0007,0.0051,0.0136,0.0174,0.0268,0.031,0.0383,0.0456,0.0476,0.0548,0.0445,0.04,0.0262,0.0119,0.0176,-0.0027,-0.006,-0.0034,-0.0041,-0.0004,-0.0011,0.0055,0.0055,0.0056,0.0056,0,-0.0059,-0.0016,0.0057,0.0131,0.016,0.0215,0.0309,0.0369,0.046,0.0566,0.0601,0.0672,0.0632,0.0486,0.0348,0.02,0.0056,-0.0026,-0.0014,-0.0045,-0.0156,-0.0158,-0.0171,-0.0173,-0.0176,-0.0178,-0.0179,0,-0.0037,0.0004,0.0084,0.0117,0.0152,0.0234,0.0289,0.0383,0.0454,0.0649,0.0707,0.0743,0.077,0.0552,0.0293,0.0036,0.0008,-0.0131,-0.0156,-0.0142,-0.0173,-0.0171,-0.017,-0.0138,-0.014,-0.0141,-0.0141,0,-0.0024,0.0,0.0042,0.0113,0.0175,0.026,0.0358,0.0436,0.0571,0.0721,0.091,0.0973,0.0791,0.0585,0.0217,0.0042,-0.0084,-0.0161,-0.011,-0.0095,-0.0119,-0.0147,-0.0145,-0.015,-0.0149,-0.0148,-0.0148,-0.0147,-0.0044,-0.0025,0.0024,0.0098,0.0176,0.03,0.0411,0.055,0.0734,0.1004,0.1012,0.1145,0.0868,0.045,0.0146,-0.0165,-0.016,-0.0267,-0.026,-0.0253,-0.025,-0.0277,-0.0339,-0.0339,-0.0339,-0.0339,-0.0339,0,-0.0069,-0.004,0.0008,0.0115,0.0218,0.028,0.0468,0.0635,0.0911,0.1088,0.1269,0.1053,0.0808,0.0499,0.0027,-0.0272,-0.0264,-0.0354,-0.0271,-0.0262,-0.0255,-0.0248,-0.0339,-0.0339,-0.034,-0.034,0,0,-0.0084,-0.0048,-0.0008,0.0145,0.0241,0.0439,0.0586,0.0869,0.1055,0.1295,0.137,0.1357,0.0929,0.0588,0.019,-0.0063,-0.0087,-0.0113,-0.0088,0.0064,0.0076,-0.0189,-0.0168,0,0,0,0,0]}],[{"header":{"parameterUnit":"m.s-1","parameterCategory":2,"la1":30.2991,"la2":30.254,"lo1":-89.0895,"lo2":-89.0444,"dy":0.0017,"dx":0.0017,"nx":28,"ny":28,"refTime":"2025-03-22T21:00:00:Z","depth":"4","parameterNumber":2,"parameterNumberName":"U-component_of_CURRENTS"},"data":[0,0,0,0,0,0,0,0,0,0,0,0,0,0,0,0,0,0,0,0,0,0,0,0,0,0,0,0,0,0,0,0,0,0,0,0,0,0,0,0,0,0,0,0,0,0,0,0,0,0,0,0,0,0,0,0,0,0,0.0448,0.045,0,0.0492,0.0492,0.0491,0.0537,0.0538,0.0539,0.0541,0.0703,0.0706,0.0708,0,0,0,0,0,0,0,0,0,0,0,0,0,0.0427,0.0426,0.0448,0.045,0.0451,0.0492,0.0492,0.0491,0.0536,0.0538,0.054,0.0541,0.0702,0.0705,0.0709,0,0,0,0,0,0,0,0,0,0,0,0,0,0.0442,0.0426,0.0448,0.0485,0.0489,0.0492,0.0492,0.0491,0.0536,0.0538,0.054,0.0542,0.07,0.0705,0.0709,0.0695,0,0,0.0723,0.0725,0,0,0,0,0,0,0,0,0.0441,0.0441,0.0478,0.0482,0.0487,0.0518,0.0544,0.0568,0.0536,0.0509,0.0541,0.0543,0.0656,0.0664,0.0654,0.0703,0.071,0.0723,0.0726,0.0728,0.0729,0,0,0,0,0,0,0,0.0439,0.044,0.0457,0.0479,0.0485,0.0507,0.051,0.0548,0.0566,0.0512,0.0517,0.0535,0.0658,0.0649,0.0659,0.0712,0.0723,0.0727,0.073,0.0732,0.1032,0.1037,0,0,0,0,0,0,0.0447,0.0438,0.0456,0.0459,0.0478,0.0506,0.051,0.0499,0.0563,0.0576,0.0533,0.0537,0.0641,0.0653,0.0665,0.0852,0.0728,0.0732,0.0735,0.1027,0.1033,0.1039,0,0,0,0,0,0,0.0446,0.0447,0.0454,0.0459,0.0462,0.0505,0.0493,0.0499,0.0537,0.058,0.0594,0.0571,0.0643,0.0659,0.077,0.0851,0.0734,0.0738,0.1021,0.1029,0.1036,0.1098,0,0,0,0,0,0,0.0444,0.0445,0.0449,0.0458,0.0463,0.0495,0.0492,0.0499,0.0546,0.0552,0.0616,0.063,0.0646,0.0764,0.0775,0.0855,0.0742,0.1014,0.1024,0.1034,0.109,0.1108,0.1123,0,0,0,0,0,0.0443,0.0438,0.0448,0.0452,0.0462,0.0497,0.0502,0.0534,0.0546,0.0572,0.0639,0.0631,0.0836,0.077,0.0782,0.0866,0.1009,0.1022,0.1033,0.1082,0.1104,0.1122,0,0,0,0,0,0,0.0421,0.0443,0.0454,0.0453,0.0495,0.051,0.0531,0.0555,0.0617,0.064,0.0673,0.0693,0.0798,0.0847,0.0774,0.0993,0.0931,0.0946,0.0965,0.0986,0.1002,0.1012,0.0746,0,0,0,0,0,0.0419,0.0427,0.0458,0.0464,0.0483,0.0513,0.0535,0.0567,0.0619,0.0647,0.0707,0.0789,0.0846,0.0929,0.0962,0.1096,0.1094,0.1174,0.119,0.1203,0.1228,0.1314,0.1339,0.1078,0.1078,0.1078,0,0,0.0413,0.0428,0.0432,0.0463,0.0486,0.0536,0.053,0.0581,0.0655,0.0657,0.0784,0.081,0.0879,0.1002,0.1065,0.1072,0.1268,0.1218,0.1228,0.1247,0.1329,0.1353,0.1375,0.1086,0.1085,0.1083,0,0,0.042,0.0418,0.044,0.0475,0.0537,0.0569,0.0598,0.0658,0.0717,0.0844,0.0845,0.0948,0.1075,0.1139,0.1186,0.1333,0.1301,0.1361,0.151,0.1593,0.1614,0.1632,0.1601,0.1616,0.1432,0.1432,0.1432,0,0.0424,0.0446,0.0457,0.0497,0.0535,0.0594,0.0646,0.0715,0.0821,0.088,0.0918,0.11,0.1148,0.1289,0.1355,0.1366,0.137,0.1411,0.1608,0.1627,0.1644,0.1609,0.1625,0.1436,0.1436,0.1435,0.1435,0,0.0448,0.0487,0.0503,0.0576,0.0615,0.0673,0.0763,0.0849,0.0945,0.102,0.1181,0.1274,0.14,0.144,0.1455,0.1616,0.1553,0.1555,0.1536,0.1673,0.1628,0.1643,0.1443,0.1441,0.144,0.1439,0,0,0.0418,0.0509,0.052,0.0562,0.0665,0.0693,0.0828,0.0951,0.104,0.1214,0.1337,0.1507,0.1564,0.1626,0.1664,0.1784,0.1885,0.1759,0.1761,0.1689,0.1995,0.1831,0.1829,0.1924,0.1929,0.1932,0.1888,0,0.0453,0.053,0.0574,0.0668,0.0714,0.0797,0.09,0.1018,0.1157,0.1292,0.1451,0.1567,0.1638,0.1702,0.1846,0.1845,0.1941,0.1892,0.191,0.1909,0.1716,0.185,0.1948,0.1899,0.1902,0.1904,0.1906,0,0.0474,0.0521,0.0606,0.0705,0.0729,0.0802,0.0945,0.1081,0.1273,0.1363,0.156,0.1633,0.1831,0.1859,0.2046,0.2013,0.2031,0.2047,0.2045,0.189,0.1777,0.1757,0.1933,0.1931,0.1929,0.1927,0.1925,0,0.043,0.0547,0.0612,0.0644,0.0765,0.0826,0.0943,0.1114,0.122,0.1439,0.1503,0.1729,0.1825,0.197,0.2056,0.2056,0.2192,0.2179,0.2039,0.2021,0.2143,0.2125,0.2305,0.2305,0.2305,0.2305,0.2305,0,0.0439,0.0488,0.0601,0.0625,0.0694,0.0825,0.0946,0.1076,0.1269,0.1383,0.1576,0.1669,0.1868,0.1966,0.2058,0.2096,0.221,0.2076,0.2036,0.2162,0.2148,0.2148,0.213,0.2303,0.2304,0.2304,0.2304,0,0.0372,0.046,0.0514,0.0632,0.0674,0.0745,0.0919,0.1016,0.1219,0.1374,0.1436,0.162,0.176,0.1897,0.204,0.204,0.2109,0.2076,0.2138,0.2097,0.1862,0.185,0.1917,0.1911,0.1907,0.1903,0.19,0,0.0351,0.0376,0.0471,0.0499,0.0557,0.068,0.0756,0.0969,0.1079,0.1342,0.1394,0.1546,0.1659,0.1747,0.1888,0.1993,0.1997,0.1954,0.1999,0.1887,0.1841,0.1835,0.1829,0.1893,0.1892,0.189,0.1889,0,0.0278,0.031,0.0346,0.0403,0.0469,0.0533,0.0691,0.0737,0.1009,0.1148,0.1332,0.1438,0.1539,0.1667,0.1719,0.1817,0.1961,0.1907,0.1917,0.1959,0.1858,0.1816,0.1815,0.1873,0.1876,0.1877,0.1878,0,0.0215,0.0208,0.0264,0.0308,0.0371,0.0427,0.0502,0.0659,0.0794,0.1114,0.1144,0.1372,0.1512,0.1571,0.1662,0.1706,0.1708,0.1662,0.1686,0.1704,0.1665,0.1508,0.1405,0,0,0,0,0,0.0162,0.0162,0.018,0.0232,0.0287,0.0333,0.0474,0.0572,0.0789,0.0892,0.1046,0.1176,0.1326,0.1424,0.1438,0.1529,0.1672,0.1529,0.1619,0.1786,0.1804,0.1784,0,0,0,0,0,0,0.0132,0.0144,0.015,0.0165,0.0192,0.0257,0.034,0.0479,0.0571,0.08,0.0904,0.1068,0.1235,0.1319,0.1407,0.1432,0.1455,0.166,0.1656,0.1776,0.1792,0.1807,0.1792,0,0,0,0,0]},{"header":{"parameterUnit":"m.s-1","parameterCategory":2,"la1":30.2991,"la2":30.254,"lo1":-89.0895,"lo2":-89.0444,"dy":0.0017,"dx":0.0017,"nx":28,"ny":28,"refTime":"2025-03-22T21:00:00:Z","depth":"4","parameterNumber":3,"parameterNumberName":"V-component_of_CURRENTS"},"data":[0,0,0,0,0,0,0,0,0,0,0,0,0,0,0,0,0,0,0,0,0,0,0,0,0,0,0,0,0,0,0,0,0,0,0,0,0,0,0,0,0,0,0,0,0,0,0,0,0,0,0,0,0,0,0,0,0,0,0.041,0.0411,0,0.0403,0.0402,0.0402,0.0392,0.0392,0.0393,0.0393,0.0386,0.0385,0.0385,0,0,0,0,0,0,0,0,0,0,0,0,0,0.0365,0.0366,0.041,0.0411,0.0411,0.0403,0.0402,0.0402,0.0392,0.0392,0.0393,0.0393,0.0386,0.0385,0.0385,0,0,0,0,0,0,0,0,0,0,0,0,0,0.037,0.0367,0.041,0.0408,0.0408,0.0403,0.0402,0.0402,0.0392,0.0392,0.0393,0.0393,0.0386,0.0386,0.0385,0.0376,0,0,0.0383,0.0383,0,0,0,0,0,0,0,0,0.037,0.0372,0.0408,0.0408,0.0408,0.0402,0.0384,0.0394,0.0392,0.0394,0.0393,0.0393,0.0394,0.0392,0.0385,0.0375,0.0375,0.0383,0.0383,0.0383,0.0382,0,0,0,0,0,0,0,0.037,0.0372,0.0403,0.0408,0.0409,0.039,0.0391,0.0385,0.0389,0.0394,0.0394,0.0399,0.0393,0.0385,0.0385,0.0375,0.0383,0.0383,0.0382,0.0382,0.0323,0.0322,0,0,0,0,0,0,0.0381,0.0372,0.0404,0.0404,0.0394,0.0391,0.0392,0.0401,0.0389,0.0389,0.0399,0.0399,0.0386,0.0385,0.0384,0.0348,0.0383,0.0382,0.0382,0.0324,0.0323,0.0322,0,0,0,0,0,0,0.038,0.0384,0.0404,0.039,0.0392,0.0392,0.0401,0.04,0.0407,0.0394,0.0393,0.0409,0.0386,0.0385,0.0382,0.0349,0.0382,0.0381,0.0326,0.0324,0.0322,0.0291,0,0,0,0,0,0,0.0379,0.0384,0.0401,0.0391,0.0393,0.041,0.0402,0.04,0.041,0.041,0.0402,0.04,0.0386,0.0382,0.0381,0.0349,0.0381,0.0328,0.0325,0.0323,0.0294,0.0288,0.0284,0,0,0,0,0,0.0378,0.0402,0.0402,0.0407,0.0415,0.041,0.0409,0.0407,0.0411,0.0414,0.0403,0.0401,0.0366,0.0382,0.038,0.0347,0.0329,0.0326,0.0323,0.0296,0.0289,0.0284,0,0,0,0,0,0,0.0392,0.0403,0.0403,0.043,0.0425,0.0411,0.042,0.0417,0.0411,0.0414,0.04,0.0397,0.0378,0.0372,0.039,0.0321,0.0341,0.0338,0.0321,0.0315,0.031,0.0296,0.038,0,0,0,0,0,0.0404,0.0425,0.0421,0.0443,0.0441,0.0432,0.0435,0.0431,0.0422,0.0421,0.0412,0.0392,0.0362,0.035,0.0334,0.0308,0.0291,0.028,0.0275,0.0271,0.0258,0.0224,0.0214,0.0313,0.0313,0.0313,0,0,0.0417,0.0426,0.0439,0.0447,0.0442,0.0437,0.0433,0.0439,0.0428,0.0421,0.041,0.0388,0.0355,0.0316,0.0305,0.0309,0.023,0.0268,0.0264,0.0253,0.022,0.021,0.0202,0.0311,0.0311,0.0311,0,0,0.0441,0.0457,0.0475,0.0467,0.0467,0.0457,0.0463,0.0452,0.0441,0.0425,0.0404,0.0363,0.0339,0.0289,0.0263,0.0224,0.0214,0.0219,0.0174,0.0141,0.0133,0.0125,0.0076,0.0064,0.0207,0.0207,0.0207,0,0.0456,0.0476,0.0477,0.0478,0.0477,0.0467,0.0469,0.045,0.0438,0.0411,0.0421,0.0334,0.0314,0.0232,0.0206,0.021,0.0192,0.0201,0.0135,0.0127,0.012,0.0071,0.0059,0.0205,0.0205,0.0205,0.0206,0,0.047,0.0492,0.0498,0.0497,0.0491,0.0495,0.0467,0.0459,0.0445,0.0402,0.0337,0.0296,0.0236,0.0212,0.0192,0.0115,0.0117,0.0143,0.0152,0.0108,0.0059,0.0047,0.0202,0.0203,0.0204,0.0204,0,0,0.0491,0.051,0.0512,0.0524,0.0503,0.0505,0.0478,0.0438,0.0417,0.036,0.0308,0.0215,0.0176,0.0143,0.0109,0.0059,-0.0017,0.0072,0.0071,0.0025,-0.0103,-0.0071,-0.0082,0.0006,0.0004,0.0003,-0.0123,0,0.0503,0.0529,0.0523,0.0539,0.0549,0.0524,0.0508,0.0462,0.041,0.0356,0.0255,0.02,0.0154,0.013,0.0062,0.0016,-0.0049,0.0013,-0.0057,-0.006,-0.0023,-0.0094,-0.0004,-0.0132,-0.0135,-0.0137,-0.0138,0,0.0511,0.0533,0.0562,0.0582,0.0582,0.0589,0.0559,0.0549,0.0445,0.0393,0.028,0.0202,0.0079,0.0085,-0.007,-0.0024,-0.0078,-0.0117,-0.0122,-0.009,-0.005,-0.0077,-0.0161,-0.0159,-0.0157,-0.0156,-0.0154,0,0.053,0.0559,0.0596,0.0596,0.0608,0.062,0.0634,0.0561,0.0548,0.0426,0.0382,0.0206,0.0157,0.004,-0.0083,-0.0072,-0.0223,-0.0207,-0.0243,-0.0242,-0.0217,-0.0207,-0.0309,-0.0309,-0.0309,-0.0309,-0.0308,0,0.0539,0.0568,0.0624,0.0639,0.0686,0.0685,0.071,0.0673,0.0625,0.0581,0.0426,0.0345,0.0153,0.0026,-0.0088,-0.0214,-0.0233,-0.0278,-0.0277,-0.0229,-0.022,-0.0226,-0.0215,-0.0313,-0.0312,-0.0311,-0.031,0,0.0543,0.058,0.0629,0.0676,0.0702,0.0745,0.0798,0.08,0.0757,0.0699,0.0662,0.0454,0.0279,0.0089,-0.0099,-0.0189,-0.032,-0.0349,-0.0308,-0.0298,-0.0326,-0.0315,-0.0432,-0.0432,-0.0432,-0.0432,-0.0432,0,0.0546,0.058,0.0663,0.0711,0.0744,0.082,0.0864,0.0863,0.0853,0.0751,0.0712,0.0532,0.037,0.011,-0.0076,-0.0311,-0.032,-0.0396,-0.037,-0.0354,-0.0342,-0.0331,-0.032,-0.0432,-0.0432,-0.0432,-0.0432,0,0.0547,0.059,0.0631,0.0735,0.0808,0.0876,0.0938,0.0932,0.091,0.0874,0.0726,0.0542,0.0352,0.0108,-0.0058,-0.0222,-0.0362,-0.0397,-0.0398,-0.0374,-0.0355,-0.0341,-0.033,-0.0432,-0.0432,-0.0432,-0.0432,0,0.0554,0.0588,0.0665,0.0747,0.0839,0.0895,0.0928,0.0925,0.0925,0.0815,0.0763,0.054,0.0406,0.0155,-0.0009,-0.0163,-0.0203,-0.0247,-0.0256,-0.0258,-0.0161,-0.0109,-0.0133,0,0,0,0,0,0.0552,0.0596,0.0673,0.076,0.0846,0.09,0.0952,0.0972,0.0943,0.0852,0.0814,0.0625,0.0346,0.0212,0.0062,-0.0009,-0.0227,-0.0189,-0.0281,-0.0433,-0.0433,-0.0344,0,0,0,0,0,0,0.0562,0.0628,0.0662,0.0752,0.0813,0.0904,0.0935,0.0921,0.0873,0.0819,0.0673,0.0604,0.0337,0.0436,0.0063,0.0013,-0.0063,-0.0314,-0.0317,-0.0433,-0.0433,-0.0433,-0.0341,0,0,0,0,0]}]]